| time (UTC) | temp F | wind direction | speed MPH | gust MPH | rain 1hr in | rain 24hr in | rain mn in | humidity % | barometer mb |
| 20260503001542 | 71 | 215 | 3.0 | 8.0 | 0.00 | 0.00 | 0.00 | 64 | 1008.9 |
| 20260503000040 | 71 | 217 | 4.0 | 9.0 | 0.00 | 0.00 | 0.00 | 64 | 1009.1 |
| 20260502234540 | 72 | 225 | 3.0 | 7.0 | 0.00 | 0.00 | 0.00 | 62 | 1009.1 |
| 20260502233042 | 73 | 246 | 2.0 | 5.0 | 0.00 | 0.00 | 0.00 | 62 | 1009.2 |
| 20260502231537 | 72 | 334 | 2.0 | 7.0 | 0.00 | 0.00 | 0.00 | 63 | 1009.4 |
| 20260502230034 | 72 | 221 | 3.0 | 7.0 | 0.00 | 0.00 | 0.00 | 63 | 1009.6 |
| 20260502224532 | 72 | 321 | 3.0 | 9.0 | 0.00 | 0.00 | 0.00 | 63 | 1010.0 |
| 20260502223033 | 72 | 319 | 3.0 | 8.0 | 0.00 | 0.00 | 0.00 | 63 | 1010.4 |
| 20260502221528 | 73 | 223 | 4.0 | 9.0 | 0.00 | 0.00 | 0.00 | 62 | 1010.6 |
| 20260502220029 | 72 | 344 | 3.0 | 10.0 | 0.00 | 0.00 | 0.00 | 63 | 1010.9 |
| 20260502214530 | 73 | 201 | 4.0 | 10.0 | 0.00 | 0.00 | 0.00 | 61 | 1011.1 |
| 20260502213023 | 73 | 229 | 4.0 | 9.0 | 0.00 | 0.00 | 0.00 | 61 | 1011.3 |
| 20260502211529 | 73 | 313 | 3.0 | 10.0 | 0.00 | 0.00 | 0.00 | 61 | 1011.4 |
| 20260502210021 | 73 | 244 | 3.0 | 10.0 | 0.00 | 0.00 | 0.00 | 62 | 1011.4 |
| 20260502204520 | 73 | 203 | 5.0 | 10.0 | 0.00 | 0.00 | 0.00 | 61 | 1011.5 |
| 20260502203020 | 73 | 201 | 4.0 | 14.0 | 0.00 | 0.00 | 0.00 | 61 | 1011.5 |
| 20260502201517 | 74 | 228 | 4.0 | 10.0 | 0.00 | 0.00 | 0.00 | 60 | 1011.7 |
| 20260502200018 | 74 | 214 | 3.0 | 7.0 | 0.00 | 0.00 | 0.00 | 60 | 1011.8 |
| 20260502194516 | 74 | 268 | 4.0 | 9.0 | 0.00 | 0.00 | 0.00 | 61 | 1012.0 |
| 20260502193015 | 74 | 229 | 3.0 | 10.0 | 0.00 | 0.00 | 0.00 | 60 | 1012.2 |
| 20260502191520 | 74 | 213 | 3.0 | 7.0 | 0.00 | 0.00 | 0.00 | 61 | 1012.4 |
| 20260502190024 | 73 | 35 | 2.0 | 7.0 | 0.00 | 0.00 | 0.00 | 62 | 1012.6 |
| 20260502184514 | 73 | 268 | 2.0 | 8.0 | 0.00 | 0.00 | 0.00 | 63 | 1012.7 |
| 20260502183006 | 72 | 223 | 2.0 | 7.0 | 0.00 | 0.00 | 0.00 | 64 | 1012.9 |
| 20260502181503 | 71 | 93 | 1.0 | 5.0 | 0.00 | 0.00 | 0.00 | 65 | 1012.8 |
| 20260502180124 | 69 | 186 | 1.0 | 4.0 | 0.00 | 0.00 | 0.00 | 67 | 1012.8 |
| 20260502163037 | 61 | 164 | 0.0 | 4.0 | 0.00 | 0.00 | 0.00 | 81 | 1013.9 |
| 20260502161533 | 61 | 285 | 0.0 | 3.0 | 0.00 | 0.00 | 0.00 | 82 | 1013.9 |
| 20260502151521 | 58 | 72 | 1.0 | 3.0 | 0.00 | 0.00 | 0.00 | 84 | 1013.3 |
| 20260502123105 | 56 | 86 | 0.0 | 1.0 | 0.00 | 0.00 | 0.00 | 84 | 1012.6 |
| 20260502121608 | 56 | 86 | 0.0 | 1.0 | 0.00 | 0.00 | 0.00 | 83 | 1012.5 |
| 20260502114556 | 56 | 231 | 0.0 | 2.0 | 0.00 | 0.00 | 0.00 | 84 | 1012.2 |
| 20260502113055 | 54 | 355 | 0.0 | 0.0 | 0.00 | 0.00 | 0.00 | 84 | 1012.2 |
| 20260502111558 | 53 | 355 | 0.0 | 0.0 | 0.00 | 0.00 | 0.00 | 84 | 1012.1 |
| 20260502110053 | 52 | 355 | 0.0 | 0.0 | 0.00 | 0.00 | 0.00 | 83 | 1011.9 |
| 20260502104552 | 52 | 355 | 0.0 | 0.0 | 0.00 | 0.00 | 0.00 | 83 | 1011.7 |
| 20260502103054 | 52 | 355 | 0.0 | 0.0 | 0.00 | 0.00 | 0.00 | 83 | 1011.8 |
| 20260502101605 | 52 | 355 | 0.0 | 0.0 | 0.00 | 0.00 | 0.00 | 83 | 1011.8 |
| 20260502071532 | 55 | 5 | 0.0 | 1.0 | 0.00 | 0.00 | 0.00 | 82 | 1012.4 |
| 20260502070029 | 55 | 5 | 0.0 | 1.0 | 0.00 | 0.00 | 0.00 | 82 | 1012.3 |
| 20260502064533 | 55 | 5 | 0.0 | 1.0 | 0.00 | 0.00 | 0.00 | 82 | 1012.3 |
| 20260502063027 | 55 | 5 | 0.0 | 1.0 | 0.00 | 0.00 | 0.00 | 81 | 1012.1 |
| 20260502061527 | 56 | 5 | 0.0 | 1.0 | 0.00 | 0.00 | 0.00 | 81 | 1012.2 |
| 20260502060027 | 56 | 5 | 0.0 | 1.0 | 0.00 | 0.00 | 0.00 | 81 | 1012.0 |
| 20260502054525 | 57 | 5 | 0.0 | 1.0 | 0.00 | 0.00 | 0.00 | 81 | 1012.1 |
| 20260502053028 | 57 | 5 | 0.0 | 1.0 | 0.00 | 0.00 | 0.00 | 80 | 1012.1 |
| 20260502051524 | 57 | 5 | 0.0 | 2.0 | 0.00 | 0.00 | 0.00 | 80 | 1012.2 |
| 20260502050024 | 58 | 344 | 0.0 | 1.0 | 0.00 | 0.00 | 0.00 | 80 | 1012.2 |
| 20260502044524 | 59 | 333 | 0.0 | 1.0 | 0.00 | 0.00 | 0.00 | 79 | 1012.1 |
| 20260502043023 | 59 | 327 | 0.0 | 1.0 | 0.00 | 0.00 | 0.00 | 79 | 1011.9 |
| 20260502041526 | 60 | 346 | 0.0 | 2.0 | 0.00 | 0.00 | 0.00 | 78 | 1011.8 |
| 20260502040025 | 60 | 310 | 0.0 | 3.0 | 0.00 | 0.00 | 0.00 | 78 | 1011.6 |
| 20260502034529 | 61 | 281 | 0.0 | 6.0 | 0.00 | 0.00 | 0.00 | 77 | 1011.5 |
| 20260502033021 | 61 | 292 | 1.0 | 5.0 | 0.00 | 0.00 | 0.00 | 77 | 1011.3 |
| 20260502031521 | 62 | 300 | 2.0 | 8.0 | 0.00 | 0.00 | 0.00 | 76 | 1011.1 |
| 20260502030020 | 62 | 250 | 1.0 | 5.0 | 0.00 | 0.00 | 0.00 | 75 | 1010.9 |
| 20260502024520 | 63 | 250 | 1.0 | 6.0 | 0.00 | 0.00 | 0.00 | 74 | 1010.8 |
| 20260502023020 | 63 | 338 | 2.0 | 6.0 | 0.00 | 0.00 | 0.00 | 73 | 1010.7 |
| 20260502021519 | 65 | 304 | 1.0 | 5.0 | 0.00 | 0.00 | 0.00 | 71 | 1010.6 |
| 20260502020022 | 66 | 308 | 1.0 | 7.0 | 0.00 | 0.00 | 0.00 | 69 | 1010.5 |
| 20260502014517 | 67 | 54 | 1.0 | 8.0 | 0.00 | 0.00 | 0.00 | 68 | 1010.5 |
| 20260502013018 | 68 | 254 | 2.0 | 7.0 | 0.00 | 0.00 | 0.00 | 67 | 1010.3 |
| 20260502011536 | 69 | 254 | 3.0 | 10.0 | 0.00 | 0.00 | 0.00 | 66 | 1010.4 |
| 20260502010019 | 69 | 217 | 3.0 | 8.0 | 0.00 | 0.00 | 0.00 | 65 | 1010.4 |
| 20260502004516 | 70 | 203 | 3.0 | 10.0 | 0.00 | 0.00 | 0.00 | 64 | 1010.4 |
| 20260502003022 | 70 | 252 | 4.0 | 11.0 | 0.00 | 0.00 | 0.00 | 65 | 1010.4 |